7 * 24
多渠道服务支持
BEIDOU-2 IGSO-3 是中国北斗二代卫星导航系统中的一颗倾斜地球同步轨道(IGSO)卫星,于2012年发射。该卫星运行在高度约35,900公里的椭圆轨道上,倾角约为55度,主要用于增强北斗系统在中低纬度地区的定位、导航和授时服务。IGSO-3 卫星的部署提升了系统的覆盖范围和定位精度,增强了区域服务的稳定性和可靠性,是中国建设全球卫星导航系统的重要组成部分。
中国
(CN)
| 数据来源 | 国际轨道数据 |
| 星历时间: | 2026-09-12T01:17:24+0800 1天前 查看轨道信息 |
| 半长轴: | 42158.898km |
| 偏心率: | 0.0034682 |
| 轨道倾角: | 62.539° |
| 近地点辐角 | 183.639° |
| 升交点赤经 | 39.344° |
| 平近点角 | 132.993° |
| 近地点: | 35634.545km |
| 远地点: | 35926.977km |
| 周期: | 1435.799分钟 |
| 每日圈数: | 1.002926 |